TimeEDT,TemperatureF,Dew PointF,Humidity,Sea Level PressureIn,VisibilityMPH,Wind Direction,Wind SpeedMPH,Gust SpeedMPH,PrecipitationIn,Events,Conditions,WindDirDegrees,DateUTC
12:15 AM,63.9,63.1,97,30.17,10.0,Calm,Calm,-,N/A,,Scattered Clouds,0,2013-09-07 04:15:00
12:35 AM,63.5,62.6,97,30.17,10.0,Calm,Calm,-,N/A,,Clear,0,2013-09-07 04:35:00
1:15 AM,62.1,61.5,98,30.17,10.0,Calm,Calm,-,N/A,,Clear,0,2013-09-07 05:15:00
2:15 AM,60.8,60.3,98,30.17,7.0,Calm,Calm,-,N/A,,Clear,0,2013-09-07 06:15:00
2:35 AM,59.9,59.4,98,30.16,7.0,Calm,Calm,-,N/A,,Clear,0,2013-09-07 06:35:00
2:55 AM,59.9,59.7,99,30.16,5.0,Calm,Calm,-,N/A,,Clear,0,2013-09-07 06:55:00
3:15 AM,59.5,59.2,99,30.16,5.0,Calm,Calm,-,N/A,,Clear,0,2013-09-07 07:15:00
3:35 AM,59.4,59.2,99,30.16,1.8,Calm,Calm,-,N/A,,Mist,0,2013-09-07 07:35:00
3:55 AM,59.5,59.0,98,30.15,3.0,Calm,Calm,-,N/A,,Clear,0,2013-09-07 07:55:00
4:15 AM,58.5,58.1,99,30.15,7.0,Calm,Calm,-,N/A,,Clear,0,2013-09-07 08:15:00
4:35 AM,59.0,58.8,99,30.15,0.5,Calm,Calm,-,N/A,Fog,Fog,0,2013-09-07 08:35:00
4:55 AM,58.5,58.3,99,30.15,1.0,Calm,Calm,-,N/A,,Overcast,0,2013-09-07 08:55:00
5:15 AM,58.1,58.1,100,30.15,3.0,Calm,Calm,-,N/A,,Mostly Cloudy,0,2013-09-07 09:15:00
5:35 AM,58.3,58.3,100,30.16,0.2,Calm,Calm,-,N/A,Fog,Fog,0,2013-09-07 09:35:00
5:55 AM,57.9,57.7,99,30.16,1.5,Calm,Calm,-,N/A,,Mostly Cloudy,0,2013-09-07 09:55:00
6:15 AM,57.9,57.7,99,30.16,2.5,Calm,Calm,-,N/A,,Scattered Clouds,0,2013-09-07 10:15:00
6:35 AM,57.4,57.2,99,30.16,0.8,Calm,Calm,-,N/A,,Overcast,0,2013-09-07 10:35:00
6:55 AM,58.1,58.1,100,30.17,1.0,Calm,Calm,-,N/A,,Overcast,0,2013-09-07 10:55:00
7:15 AM,58.6,58.5,99,30.18,5.0,Calm,Calm,-,N/A,,Overcast,0,2013-09-07 11:15:00
7:35 AM,58.1,57.7,99,30.17,3.0,Calm,Calm,-,N/A,,Mostly Cloudy,0,2013-09-07 11:35:00
7:55 AM,58.5,58.3,99,30.17,5.0,Calm,Calm,-,N/A,,Scattered Clouds,0,2013-09-07 11:55:00
8:15 AM,59.4,59.2,99,30.18,5.0,Calm,Calm,-,N/A,,Mostly Cloudy,0,2013-09-07 12:15:00
8:35 AM,60.3,60.1,99,30.18,7.0,Calm,Calm,-,N/A,,Overcast,0,2013-09-07 12:35:00
8:55 AM,60.8,60.3,98,30.18,10.0,Calm,Calm,-,N/A,,Overcast,0,2013-09-07 12:55:00
9:15 AM,62.1,61.5,98,30.18,7.0,Calm,Calm,-,N/A,,Overcast,0,2013-09-07 13:15:00
9:35 AM,63.5,62.1,95,30.18,10.0,Calm,Calm,-,N/A,,Overcast,0,2013-09-07 13:35:00
9:55 AM,65.5,62.6,90,30.18,10.0,Calm,Calm,-,N/A,,Mostly Cloudy,0,2013-09-07 13:55:00
10:15 AM,68.0,64.2,88,30.18,10.0,Calm,Calm,-,N/A,,Mostly Cloudy,0,2013-09-07 14:15:00
10:35 AM,69.8,64.2,82,30.19,10.0,Calm,Calm,-,N/A,,Scattered Clouds,0,2013-09-07 14:35:00
10:55 AM,72.1,64.9,78,30.19,10.0,Calm,Calm,-,N/A,,Clear,0,2013-09-07 14:55:00
11:15 AM,73.4,65.3,76,30.19,10.0,Calm,Calm,-,N/A,,Clear,0,2013-09-07 15:15:00
11:35 AM,74.5,66.2,75,30.18,10.0,West,3.5,-,N/A,,Clear,280,2013-09-07 15:35:00
11:55 AM,76.1,64.8,68,30.18,10.0,SW,4.6,-,N/A,,Clear,220,2013-09-07 15:55:00
12:15 PM,76.6,64.6,66,30.17,10.0,West,5.8,-,N/A,,Clear,260,2013-09-07 16:15:00
12:35 PM,77.5,64.2,63,30.16,10.0,Calm,Calm,-,N/A,,Clear,0,2013-09-07 16:35:00
12:55 PM,78.4,64.8,63,30.16,10.0,SW,4.6,-,N/A,,Clear,220,2013-09-07 16:55:00
1:15 PM,78.1,64.8,63,30.15,10.0,SSW,4.6,-,N/A,,Mostly Cloudy,210,2013-09-07 17:15:00
1:35 PM,79.5,65.7,62,30.15,10.0,SSW,4.6,-,N/A,,Overcast,200,2013-09-07 17:35:00
1:55 PM,77.4,65.1,66,30.15,10.0,WSW,4.6,-,N/A,,Overcast,240,2013-09-07 17:55:00
2:15 PM,79.9,65.5,61,30.13,10.0,WSW,4.6,-,N/A,,Mostly Cloudy,240,2013-09-07 18:15:00
2:35 PM,79.3,65.1,62,30.12,10.0,SW,3.5,-,N/A,,Scattered Clouds,220,2013-09-07 18:35:00
2:55 PM,80.6,65.5,60,30.11,10.0,Calm,Calm,-,N/A,,Clear,0,2013-09-07 18:55:00
3:15 PM,81.7,66.0,59,30.11,10.0,SW,6.9,-,N/A,,Scattered Clouds,230,2013-09-07 19:15:00
3:35 PM,81.7,66.0,59,30.10,10.0,WSW,5.8,-,N/A,,Scattered Clouds,250,2013-09-07 19:35:00
3:55 PM,82.2,66.7,59,30.10,10.0,SW,6.9,-,N/A,,Scattered Clouds,230,2013-09-07 19:55:00
4:15 PM,82.4,66.7,59,30.09,10.0,WSW,6.9,-,N/A,,Mostly Cloudy,250,2013-09-07 20:15:00
4:35 PM,81.9,65.5,57,30.08,10.0,SW,6.9,-,N/A,,Scattered Clouds,220,2013-09-07 20:35:00
4:55 PM,81.3,65.5,58,30.08,10.0,WSW,3.5,-,N/A,,Clear,250,2013-09-07 20:55:00
5:15 PM,80.8,65.8,60,30.08,10.0,West,4.6,-,N/A,,Clear,270,2013-09-07 21:15:00
5:35 PM,79.0,66.4,65,30.08,10.0,Calm,Calm,-,N/A,,Clear,0,2013-09-07 21:35:00
5:55 PM,77.7,67.5,71,30.07,10.0,Calm,Calm,-,N/A,,Scattered Clouds,0,2013-09-07 21:55:00
6:15 PM,77.2,67.3,71,30.07,10.0,WSW,4.6,-,N/A,,Scattered Clouds,240,2013-09-07 22:15:00
6:35 PM,79.2,66.9,66,30.07,10.0,West,5.8,-,N/A,,Clear,260,2013-09-07 22:35:00
6:55 PM,77.9,67.3,70,30.07,10.0,SW,3.5,-,N/A,,Clear,230,2013-09-07 22:55:00
7:15 PM,74.8,68.2,80,30.07,10.0,Calm,Calm,-,N/A,,Clear,0,2013-09-07 23:15:00
7:35 PM,72.5,68.2,86,30.07,10.0,North,3.5,-,N/A,,Clear,350,2013-09-07 23:35:00
7:55 PM,71.2,68.0,89,30.08,10.0,Calm,Calm,-,N/A,,Scattered Clouds,0,2013-09-07 23:55:00
8:15 PM,70.2,67.6,92,30.08,10.0,Calm,Calm,-,N/A,,Scattered Clouds,0,2013-09-08 00:15:00
8:35 PM,68.9,66.9,93,30.08,10.0,Calm,Calm,-,N/A,,Clear,0,2013-09-08 00:35:00
8:55 PM,68.2,66.4,94,30.08,10.0,Calm,Calm,-,N/A,,Clear,0,2013-09-08 00:55:00
9:15 PM,67.6,65.8,94,30.09,10.0,Calm,Calm,-,N/A,,Clear,0,2013-09-08 01:15:00
9:35 PM,66.9,65.7,96,30.09,7.0,Calm,Calm,-,N/A,,Clear,0,2013-09-08 01:35:00
9:55 PM,65.5,64.6,97,30.09,10.0,Calm,Calm,-,N/A,,Clear,0,2013-09-08 01:55:00
10:15 PM,65.3,64.6,98,30.10,7.0,Calm,Calm,-,N/A,,Clear,0,2013-09-08 02:15:00
10:35 PM,64.9,64.2,98,30.10,5.0,Calm,Calm,-,N/A,,Clear,0,2013-09-08 02:35:00
10:55 PM,63.9,63.5,99,30.10,5.0,Calm,Calm,-,N/A,,Clear,0,2013-09-08 02:55:00
11:15 PM,63.7,63.5,99,30.10,4.0,Calm,Calm,-,N/A,,Clear,0,2013-09-08 03:15:00
11:35 PM,63.5,62.8,97,30.10,7.0,Calm,Calm,-,N/A,,Clear,0,2013-09-08 03:35:00
11:55 PM,63.1,63.1,100,30.10,3.0,Calm,Calm,-,N/A,,Clear,0,2013-09-08 03:55:00